TimeEDT,TemperatureF,Dew PointF,Humidity,Sea Level PressureIn,VisibilityMPH,Wind Direction,Wind SpeedMPH,Gust SpeedMPH,PrecipitationIn,Events,Conditions,WindDirDegrees,DateUTC
12:15 AM,-9999,-9999,N/A,30.07,10.0,Calm,Calm,-,N/A,,Clear,0,2013-05-12 04:15:00
12:35 AM,-9999,-9999,N/A,30.06,10.0,Calm,Calm,-,N/A,,Clear,0,2013-05-12 04:35:00
12:55 AM,-9999,-9999,N/A,30.06,10.0,Calm,Calm,-,N/A,,Clear,0,2013-05-12 04:55:00
1:15 AM,-9999,-9999,N/A,30.06,10.0,Calm,Calm,-,N/A,,Clear,0,2013-05-12 05:15:00
1:35 AM,-9999,-9999,N/A,30.06,10.0,Calm,Calm,-,N/A,,Clear,0,2013-05-12 05:35:00
1:55 AM,-9999,-9999,N/A,30.05,10.0,Calm,Calm,-,N/A,,Clear,0,2013-05-12 05:55:00
2:15 AM,-9999,-9999,N/A,30.04,10.0,SSE,3.5,-,N/A,,Clear,150,2013-05-12 06:15:00
2:35 AM,-9999,-9999,N/A,30.02,10.0,SSE,4.6,-,N/A,,Clear,150,2013-05-12 06:35:00
2:55 AM,-9999,-9999,N/A,30.01,10.0,SE,5.8,-,N/A,,Clear,140,2013-05-12 06:55:00
3:15 AM,-9999,-9999,N/A,29.99,10.0,SE,5.8,-,N/A,,Clear,130,2013-05-12 07:15:00
3:35 AM,-9999,-9999,N/A,29.99,10.0,SE,4.6,-,N/A,,Clear,140,2013-05-12 07:35:00
3:55 AM,-9999,-9999,N/A,29.99,10.0,SSE,3.5,-,N/A,,Scattered Clouds,160,2013-05-12 07:55:00
4:15 AM,-9999,-9999,N/A,29.99,10.0,Calm,Calm,-,N/A,,Mostly Cloudy,0,2013-05-12 08:15:00
4:35 AM,-9999,-9999,N/A,30.00,10.0,Calm,Calm,-,N/A,,Overcast,0,2013-05-12 08:35:00
4:55 AM,-9999,-9999,N/A,30.00,10.0,Calm,Calm,-,N/A,,Overcast,0,2013-05-12 08:55:00
5:35 AM,-9999,-9999,N/A,29.99,4.0,Calm,Calm,-,N/A,,Haze,0,2013-05-12 09:35:00
5:55 AM,-9999,-9999,N/A,29.99,1.5,Calm,Calm,-,N/A,,Overcast,0,2013-05-12 09:55:00
6:15 AM,-9999,-9999,N/A,30.00,0.2,Calm,Calm,-,N/A,Fog,Fog,0,2013-05-12 10:15:00
6:35 AM,-9999,-9999,N/A,30.02,0.2,Calm,Calm,-,N/A,Fog,Fog,0,2013-05-12 10:35:00
6:55 AM,-9999,-9999,N/A,30.03,0.2,Calm,Calm,-,N/A,Fog,Fog,0,2013-05-12 10:55:00
7:15 AM,-9999,-9999,N/A,30.04,0.2,Calm,Calm,-,N/A,Fog,Fog,0,2013-05-12 11:15:00
7:35 AM,-9999,-9999,N/A,30.05,0.2,NW,3.5,-,N/A,Fog,Fog,310,2013-05-12 11:35:00
7:55 AM,-9999,-9999,N/A,30.06,0.2,NW,3.5,-,N/A,Fog,Fog,320,2013-05-12 11:55:00
8:15 AM,-9999,-9999,N/A,30.06,0.5,Calm,Calm,-,N/A,Fog,Fog,0,2013-05-12 12:15:00
8:35 AM,-9999,-9999,N/A,30.07,0.8,Calm,Calm,-,N/A,,Overcast,0,2013-05-12 12:35:00
8:55 AM,-9999,-9999,N/A,30.06,2.5,Calm,Calm,-,N/A,,Overcast,0,2013-05-12 12:55:00
9:15 AM,-9999,-9999,N/A,30.07,4.0,Calm,Calm,-,N/A,,Haze,0,2013-05-12 13:15:00
9:35 AM,-9999,-9999,N/A,30.07,4.0,WSW,3.5,-,N/A,,Haze,240,2013-05-12 13:35:00
9:55 AM,-9999,-9999,N/A,30.07,5.0,West,5.8,-,N/A,,Haze,260,2013-05-12 13:55:00
10:15 AM,-9999,-9999,N/A,30.06,10.0,Calm,Calm,-,N/A,,Mostly Cloudy,0,2013-05-12 14:15:00
10:35 AM,-9999,-9999,N/A,30.06,10.0,WNW,5.8,-,N/A,,Mostly Cloudy,290,2013-05-12 14:35:00
10:55 AM,-9999,-9999,N/A,30.06,10.0,WNW,5.8,-,N/A,,Mostly Cloudy,290,2013-05-12 14:55:00
11:15 AM,84.2,69.8,62,30.05,10.0,NW,5.8,-,N/A,,Scattered Clouds,310,2013-05-12 15:15:00
11:35 AM,84.2,68.0,58,30.05,10.0,West,4.6,-,N/A,,Mostly Cloudy,270,2013-05-12 15:35:00
11:55 AM,82.4,69.8,66,30.05,10.0,West,5.8,-,N/A,,Mostly Cloudy,280,2013-05-12 15:55:00
12:15 PM,84.2,69.8,62,30.06,7.0,WNW,9.2,-,0.01,Rain,Rain,290,2013-05-12 16:15:00
12:35 PM,82.4,73.4,74,30.05,10.0,WNW,4.6,-,0.01,,Mostly Cloudy,290,2013-05-12 16:35:00
12:55 PM,82.4,69.8,66,30.04,10.0,West,3.5,-,0.01,,Mostly Cloudy,270,2013-05-12 16:55:00
1:15 PM,84.2,71.6,66,30.03,10.0,West,10.4,-,N/A,,Scattered Clouds,270,2013-05-12 17:15:00
1:35 PM,-9999,-9999,N/A,30.03,10.0,West,9.2,-,N/A,,Scattered Clouds,270,2013-05-12 17:35:00
1:55 PM,87.8,68.0,52,30.02,10.0,West,12.7,16.1,N/A,,Scattered Clouds,270,2013-05-12 17:55:00
2:15 PM,87.8,68.0,52,30.02,10.0,West,15.0,19.6,N/A,,Scattered Clouds,270,2013-05-12 18:15:00
2:35 PM,89.6,66.2,46,30.02,10.0,WSW,15.0,19.6,N/A,,Scattered Clouds,250,2013-05-12 18:35:00
2:55 PM,-9999,-9999,N/A,30.02,10.0,WSW,11.5,18.4,N/A,,Scattered Clouds,250,2013-05-12 18:55:00
3:15 PM,-9999,-9999,N/A,30.02,10.0,West,13.8,17.3,N/A,,Scattered Clouds,260,2013-05-12 19:15:00
3:35 PM,-9999,-9999,N/A,30.01,10.0,West,9.2,-,N/A,,Scattered Clouds,280,2013-05-12 19:35:00
3:55 PM,-9999,-9999,N/A,30.01,10.0,WSW,15.0,-,N/A,,Scattered Clouds,240,2013-05-12 19:55:00
4:15 PM,87.8,68.0,52,30.00,10.0,SW,15.0,19.6,N/A,,Scattered Clouds,230,2013-05-12 20:15:00
4:35 PM,87.8,68.0,52,30.01,10.0,WSW,12.7,23.0,N/A,,Scattered Clouds,250,2013-05-12 20:35:00
4:55 PM,87.8,66.2,49,30.01,10.0,West,18.4,24.2,N/A,,Scattered Clouds,260,2013-05-12 20:55:00
5:15 PM,87.8,64.4,46,30.01,10.0,West,13.8,-,N/A,,Scattered Clouds,260,2013-05-12 21:15:00
5:35 PM,87.8,64.4,46,30.01,10.0,WNW,13.8,19.6,N/A,,Scattered Clouds,300,2013-05-12 21:35:00
5:55 PM,84.2,64.4,51,30.01,10.0,WNW,10.4,16.1,N/A,,Scattered Clouds,300,2013-05-12 21:55:00
6:15 PM,84.2,64.4,51,30.01,10.0,NW,10.4,-,N/A,,Clear,310,2013-05-12 22:15:00
6:35 PM,84.2,64.4,51,30.02,10.0,WNW,10.4,-,N/A,,Clear,300,2013-05-12 22:35:00
6:55 PM,82.4,64.4,54,30.02,10.0,WNW,9.2,-,N/A,,Clear,290,2013-05-12 22:55:00
7:15 PM,82.4,62.6,51,30.02,10.0,WNW,9.2,-,N/A,,Clear,300,2013-05-12 23:15:00
7:35 PM,80.6,62.6,54,30.03,10.0,NW,8.1,-,N/A,,Clear,320,2013-05-12 23:35:00
7:55 PM,80.6,62.6,54,30.04,10.0,NW,6.9,-,N/A,,Clear,310,2013-05-12 23:55:00
8:15 PM,78.8,64.4,61,30.04,10.0,WNW,4.6,-,N/A,,Clear,290,2013-05-13 00:15:00
8:35 PM,78.8,64.4,61,30.05,10.0,Calm,Calm,-,N/A,,Clear,0,2013-05-13 00:35:00
8:55 PM,77.0,64.4,65,30.05,10.0,WNW,4.6,-,N/A,,Clear,290,2013-05-13 00:55:00
9:15 PM,77.0,64.4,65,30.05,10.0,WNW,3.5,-,N/A,,Clear,300,2013-05-13 01:15:00
9:35 PM,77.0,64.4,65,30.06,10.0,NW,4.6,-,N/A,,Clear,310,2013-05-13 01:35:00
9:55 PM,75.2,66.2,73,30.07,10.0,NW,4.6,-,N/A,,Clear,310,2013-05-13 01:55:00
10:15 PM,75.2,66.2,73,30.07,10.0,NW,4.6,-,N/A,,Clear,310,2013-05-13 02:15:00
10:35 PM,75.2,66.2,73,30.08,10.0,NW,4.6,-,N/A,,Clear,310,2013-05-13 02:35:00
10:55 PM,75.2,66.2,73,30.08,10.0,NW,4.6,-,N/A,,Clear,310,2013-05-13 02:55:00
11:15 PM,73.4,66.2,78,30.08,10.0,NW,3.5,-,N/A,,Clear,320,2013-05-13 03:15:00
11:35 PM,73.4,66.2,78,30.09,10.0,Calm,Calm,-,N/A,,Clear,0,2013-05-13 03:35:00
11:55 PM,71.6,66.2,83,30.08,10.0,Calm,Calm,-,N/A,,Clear,0,2013-05-13 03:55:00